Погода Большеречье

Погода Большеречье : погода сейчас, прогноз погоды и архив. Всё, что Вы хотите узнать о погоде Большеречье!

Хотите узнать прогноз погоды Большеречье? Тогда Вам сюда: Погода Большеречье

Поиск расширенной информации на нашем сайте:

Другие новости

Новости СМИ2

Главная страница сайта

Новости сайта

03.07.2017

Напоминаем, что на нашем специализированном сайте Метеоцентр.Азия вы можете получить высокодетализированные автоматические прогнозы погоды по пунктам России, СНГ и мира в авиационном формате (включающие направление и скорость ветра, видимость, явления погоды, количество и форму облачности, нижнюю и верхнюю границу облачности).

Рекомендуем: пленка тонированная для стекол

Погода Большеречье - сегодня

Время (UTC), дата Ветер
(°,м/с) 
Видим.   Явления Облачность Т
(°С)
Тd
(°С)
f(%) Тe
(°С)
Pmin
(гПа)
dP
(гПа)
Po
(мм)
O2
(г/м3)
Тmin Tmax R s Состояние
почвы
03 23.07.17 150 (ЮВ) 20000 м  {туман}  3/0 верхняя 
[Ci fib]
+22.4 +16.2 68 +33  1010.8  -0.1  752  276  +11.5         
06 23.07.17 050 (СВ) 20000 м  {туман}  8/6 600 м кучево-дожд., верхняя 
[Cb calv|Ci fib]
+23.7 +15.2 59 +33  1010  -0.7  751  275           
09 23.07.17 150 (ЮВ) 20000 м  в посл. час гроза{ливн. осадки}  8/6 600 м кучево-дожд., средняя, верхняя 
[Cb calv|Ac trans|Ci fib]
+25 +13.1 48 +31  1009.3  -0.7  750  274           
12 23.07.17 190 (Ю) 20000 м  {гроза, ливн. осадки}  8/6 600 м кучево-дожд., средняя, верхняя 
[Cb calv|Ac trans|Ci fib]
+25.9 +13.8 47 +33  1008.4  -0.9  750  273           
15 23.07.17 170 (Ю) 20000 м    9/3 600 м кучево-дожд., средняя 
[Cb calv|Ac trans]
+21.5 +16 71 +32  1008.4  -0.1  750  277    +26.9  0.0     
18 23.07.17 110 (В) 10 км    9/8 600 м кучево-дожд., средняя 
[Cb cap|Ac trans]
+19.8 +16.1 79 +32  1006.9  -1.6  749  278           
21 23.07.17 240 (ЮЗ) 4000 м  слаб. ливневой дождь  10/10 600 м кучево-дожд. 
[Cb cap]
+18.2 +16.2 88 +30  1006.1  -0.8  748  279           
00 24.07.17 110 (В) 20000 м  в посл. час ливневой дождь  9/8 600 м кучево-дожд., средняя 
[Cb calv|Ac cast]
+17.1 +16.3 95 +30  1003.9  -2.2  746  279           
03 24.07.17 110 (В) 20000 м  в посл. час гроза{ливн. осадки}  10/10 600 м кучево-дожд. 
[Cb cap]
+17.5 +16.5 94 +31  1002  -1.9  745  278  +16.9    10     
06 24.07.17 150 (ЮВ) 20000 м  гроза без осадков{ливн. осадки}  10/10 600 м кучево-дожд. 
[Cb cap]
+22.2 +16 68 +33  1000.2  -1.7  744  274           
09 24.07.17 290 (З) 2{10}  20000 м  гроза без осадков{ливн. осадки}  10/10 600 м кучево-дожд. 
[Cb cap]
+22.3 +16.6 70 +34  999.8  -0.4  743  273           
12 24.07.17 300 (СЗ) 20000 м  {гроза, ливн. осадки}  8/8 600 м кучево-дожд. 
[Cb calv]
+22.2 +14.3 61 +30  1000.2  0.4  744  274           
18 24.07.17 320 (СЗ) 10 км    8/8 600 м кучево-дожд. 
[Cb calv]
+16 +14.9 93 +26  1001.8  0.8  745  280           
21 24.07.17 310 (СЗ) 4000 м  дымка  9/9 600 м кучево-дожд. 
[Cb calv]
+15.1 +14.5 96 +24  1002.3  0.5  745  281           
00 25.07.17 310 (СЗ) 0200 м  туман  10/0 средняя 
[As op]
+14.7 +14.1 96 +22  1002.7  0.4  745  282           
03 25.07.17 300 (СЗ) 20000 м  {туман}  10/3 600 м кучево-дожд., средняя 
[Cb calv|As op]
+16.9 +16.3 96 +29  1003.1  0.6  746  279  +13.6         
06 25.07.17 290 (З) 20000 м  {туман}  10/10 300 м кучево-дожд. 
[Cb calv]
+20.3 +16.3 78 +31  1003.7  0.6  746  276           
09 25.07.17 110 (В) 20000 м    9/8 600 м верхняя 
[Cu med, cong|Ci]
+23.6 +15.2 59 +33  1003.4  -0.2  746  274           
12 25.07.17 300 (СЗ) 20000 м    8/8 600 м кучево-дожд., верхняя 
[Cb calv|Cs]
+24.5 +14.9 55 +33  1003.1  -0.3  746  273           
15 25.07.17 тихо ()   20000 м    9/4 600 м кучево-дожд., средняя, верхняя 
[Cb calv|Ac trans|Cs]
+20 +17.1 83 +33  1002.9  -0.3  746  276    +25.6       
18 25.07.17 140 (ЮВ) 10 км    10/8 600 м кучево-дожд., верхняя 
[Cb calv|Cs]
+19.2 +16.5 84 +33  1003.3  0.4  746  277           
21 25.07.17 250 (З) 4000 м  слаб. ливневой дождь  10/10 600 м кучево-дожд. 
[Cb calv]
+18.5 +17.4 93 +32  1003.6  0.3  746  278           
00 26.07.17 170 (Ю) 4000 м  дымка{ливн. осадки}  9/3 600 м кучево-дожд., средняя 
[Cb calv|Ac trans]
+17.6 +16.9 96 +31  1003.7  746  279           
03 26.07.17 310 (СЗ) 20000 м  {туман}  9/9 600 м кучево-дожд. 
[Cb cap]
+20.4 +17.1 81 +33  1004.2  0.6  747  276  +17.2      влажная 
06 26.07.17 270 (З) 20000 м  {туман}  8/8 600 м кучево-дожд. 
[Cb calv]
+23.1 +15.5 62 +33  1004.3  0.2  747  274           
Время (UTC), дата Ветер
(°,м/с) 
Видим.   Явления Облачность Т
(°С)
Тd
(°С)
f(%) Тe
(°С)
Pmin
(гПа)
dP
(гПа)
Po
(мм)
O2
(г/м3)
Тmin Tmax R s Состояние
почвы

Для получения пояснительной информации подведите курсор к названию столбца.

ПОГОДА Большеречье - архив

Всё, что Вы хотите узнать о погоде Большеречье - удобно и подробно!

Выберите нужную дату (начиная с 1 января 2015* года) и нажмите кнопку "Найти".
Будут отображены архивные сводки погоды по пункту Большеречье, начиная с указанной даты.


Отображать данные в формате CSV (для использования в таблицах Excel)


Внимание! Наш архив погоды предназначен исключительно для личного некоммерческого использования в познавательных целях. Если Вам необходимы официальные справки о состоянии погоды (для производственных, юридических, коммерческих и т.п. целей), обращайтесь в органы Росгидромета.

*Примечание: данная дата относится к архиву по метеостанциям СССР (Россия, СНГ, Балтия).
Архив по метеостанциям Зарубежной Европы и Азии (кроме Китая) хранится 10 дней, по другим регионам земного шара (Китай, Африка, Америка, Австралия, Океания) - 1 день.

Большеречье - район местоположения метеостанции


Название, широта, долгота, высота метеостанции:
Большеречье 56.1°ш. 74.6°д. 77 м над ур. моря [Российская Федерация]

Дополнительная информация

В oтличие oт бoльшинства пoгoдных сайтoв мы публикуем пoдрoбную метеoинфoрмацию в детальнoм прoфессиoнальнoм фoрмате.

Характеристики температуры и влажнoсти вoздуха измеряются на высoте 2 м в тени вдали oт зданий и деревьев.
Скoрoсть ветра измеряется на высoте 10 м (на урoвне рoста челoвека скoрoсть ветра ниже в 1.5-2 раза). Если метеoстанция нахoдится в гoрoде или в лесу, тo скoрoсть ветра занижена на 2-4 м/с пo сравнению с oткрытым местoм. Скoрoсть ветра над акватoриями крупных рек и oзёр, а также на вершинах хoлмoв на 2-5 м/с выше, чем в oбычных услoвиях.
Атмoсфернoе давление в разных тoчках местнoсти мoжет значительнo oтличаться oт давления на метеoстанции, в зависимoсти oт услoвий рельефа (при пoдъёме на 10 м давление пoнижается примернo на 1 мм рт.ст.).